[[{"header":{"parameterUnit":"m.s-1","parameterCategory":1,"la1":30.2991,"la2":30.254,"lo1":-89.0895,"lo2":-89.0444,"dy":0.0017,"dx":0.0017,"nx":28,"ny":28,"refTime":"2024-03-20T09:00:00:Z","depth":0,"parameterNumber":2,"parameterNumberName":"U-component_of_WINDS"},"data":[0,0,0,0,0,0,0,0,0,0,0,0,0,0,0,0,0,0,0,0,0,0,0,0,0,0,0,0,0,0,0,0,0,0,0,0,0,0,0,0,0,0,0,0,0,0,0,0,0,0,0,0,0,0,0,0,0,0,-6.2217,-6.2218,0,-6.2292,-6.2293,-6.2294,-6.209,-6.2084,-6.2078,-6.2072,-6.216,-6.2168,-6.2176,0,0,0,0,0,0,0,0,0,0,0,0,0,-6.1909,-6.1916,-6.2217,-6.2218,-6.2219,-6.2292,-6.2293,-6.2294,-6.2092,-6.2084,-6.2076,-6.2069,-6.2157,-6.2167,-6.2177,0,0,0,0,0,0,0,0,0,0,0,0,0,-6.202,-6.1918,-6.2217,-6.2126,-6.2119,-6.2292,-6.2293,-6.2294,-6.2093,-6.2084,-6.2074,-6.2065,-6.2154,-6.2166,-6.2178,-6.2445,0,0,-6.2216,-6.2221,0,0,0,0,0,0,0,0,-6.2014,-6.2031,-6.2139,-6.2133,-6.2125,-6.2172,-6.2216,-6.2345,-6.2096,-6.2103,-6.2072,-6.2061,-6.2172,-6.2182,-6.2218,-6.2449,-6.2453,-6.2217,-6.2224,-6.223,-6.2233,0,0,0,0,0,0,0,-6.2006,-6.2027,-6.2247,-6.2141,-6.2132,-6.2086,-6.2091,-6.224,-6.2191,-6.2102,-6.2087,-6.2098,-6.2167,-6.2206,-6.2218,-6.2454,-6.2217,-6.2228,-6.2235,-6.224,-6.2912,-6.2922,0,0,0,0,0,0,-6.2009,-6.2022,-6.2244,-6.2249,-6.2044,-6.2099,-6.2105,-6.2167,-6.2188,-6.2182,-6.2106,-6.2089,-6.219,-6.2204,-6.2221,-6.2538,-6.223,-6.2241,-6.2248,-6.2902,-6.2915,-6.2926,0,0,0,0,0,0,-6.2003,-6.2031,-6.2241,-6.2132,-6.2155,-6.2114,-6.2186,-6.2173,-6.2212,-6.2192,-6.2183,-6.2155,-6.2183,-6.2203,-6.2391,-6.2538,-6.2247,-6.2258,-6.289,-6.2906,-6.292,-6.3173,0,0,0,0,0,0,-6.1995,-6.203,-6.2128,-6.2135,-6.2161,-6.2408,-6.2194,-6.2181,-6.2233,-6.221,-6.2235,-6.223,-6.2177,-6.2373,-6.2403,-6.255,-6.2268,-6.2876,-6.2897,-6.2915,-6.3152,-6.3195,-6.3233,0,0,0,0,0,-6.1985,-6.2198,-6.2134,-6.2162,-6.2283,-6.2417,-6.2432,-6.2363,-6.2246,-6.2346,-6.2333,-6.223,-6.2516,-6.2394,-6.2426,-6.2579,-6.2867,-6.2891,-6.2914,-6.3133,-6.3187,-6.3232,0,0,0,0,0,0,-6.2213,-6.2197,-6.2126,-6.2347,-6.2385,-6.2382,-6.2507,-6.2422,-6.2496,-6.2472,-6.2386,-6.2394,-6.2599,-6.2606,-6.2471,-6.284,-6.2672,-6.2703,-6.2828,-6.2879,-6.2919,-6.2915,-6.2278,0,0,0,0,0,-6.2288,-6.2395,-6.2376,-6.2573,-6.2595,-6.2549,-6.2604,-6.2547,-6.2584,-6.26,-6.26,-6.2643,-6.2742,-6.281,-6.29,-6.315,-6.3155,-6.3271,-6.3312,-6.3345,-6.3375,-6.3512,-6.3564,-6.3003,-6.3003,-6.3002,0,0,-6.2447,-6.2451,-6.2524,-6.2619,-6.2641,-6.2758,-6.2563,-6.2693,-6.278,-6.262,-6.2798,-6.28,-6.2842,-6.3063,-6.316,-6.3076,-6.353,-6.3375,-6.3402,-6.3413,-6.3541,-6.3595,-6.3642,-6.3019,-6.3016,-6.3014,0,0,-6.2795,-6.2807,-6.2974,-6.3,-6.3034,-6.3002,-6.3042,-6.3053,-6.3048,-6.3223,-6.3106,-6.321,-6.3382,-6.3418,-6.3459,-6.3822,-6.3731,-6.3853,-6.4068,-6.4203,-6.4247,-6.4286,-6.442,-6.4469,-6.3882,-6.3882,-6.3883,0,-6.2989,-6.3155,-6.3072,-6.3211,-6.3258,-6.3115,-6.3286,-6.3316,-6.3381,-6.3419,-6.3321,-6.3536,-6.3554,-6.3784,-6.3872,-6.3908,-6.3956,-6.3852,-6.4246,-6.4285,-6.432,-6.4447,-6.4497,-6.3897,-6.3896,-6.3894,-6.3893,0,-6.3394,-6.3512,-6.3643,-6.3706,-6.3767,-6.3922,-6.3866,-6.3939,-6.3877,-6.3856,-6.4039,-6.4055,-6.4148,-6.4197,-6.4139,-6.442,-6.4367,-6.426,-6.409,-6.439,-6.4508,-6.4556,-6.3919,-6.3913,-6.3909,-6.3905,0,0,-6.3892,-6.3905,-6.3955,-6.3983,-6.4011,-6.4103,-6.4252,-6.4339,-6.4406,-6.4455,-6.4582,-6.4731,-6.4632,-6.4679,-6.4623,-6.4741,-6.5033,-6.4619,-6.4619,-6.47,-6.5349,-6.5433,-6.549,-6.4971,-6.498,-6.4987,-6.5347,0,-6.4239,-6.4491,-6.4421,-6.4676,-6.4787,-6.4652,-6.4783,-6.4817,-6.4802,-6.4896,-6.4879,-6.4988,-6.4847,-6.4875,-6.4985,-6.4974,-6.5163,-6.4947,-6.5094,-6.51,-6.5092,-6.5551,-6.564,-6.5979,-6.5392,-6.54,-6.5405,0,-6.4678,-6.4742,-6.5008,-6.5019,-6.5063,-6.5181,-6.5257,-6.5347,-6.5384,-6.5364,-6.5417,-6.5338,-6.549,-6.5315,-6.5526,-6.5381,-6.5436,-6.5441,-6.5452,-6.5467,-6.5274,-6.5584,-6.6085,-6.6139,-6.5477,-6.5471,-6.5466,0,-6.502,-6.5172,-6.5351,-6.5379,-6.5396,-6.5483,-6.5495,-6.5521,-6.5579,-6.5646,-6.5684,-6.5769,-6.5817,-6.5887,-6.5835,-6.5712,-6.6056,-6.5876,-6.6049,-6.6052,-6.6132,-6.6129,-6.6655,-6.616,-6.6159,-6.6158,-6.6157,0,-6.5418,-6.5587,-6.5506,-6.5617,-6.5804,-6.5722,-6.591,-6.5907,-6.5932,-6.6043,-6.5932,-6.604,-6.5961,-6.6064,-6.6024,-6.6208,-6.6229,-6.6222,-6.621,-6.6235,-6.6237,-6.6273,-6.6251,-6.6172,-6.6169,-6.6166,-6.6164,0,-6.5834,-6.5785,-6.5972,-6.5972,-6.5976,-6.6115,-6.6116,-6.6221,-6.6196,-6.6339,-6.6368,-6.6331,-6.6446,-6.6399,-6.6521,-6.6494,-6.6731,-6.6685,-6.6718,-6.6709,-6.6886,-6.6872,-6.7458,-6.7533,-6.6986,-6.6991,-6.6996,0,-6.6093,-6.622,-6.6233,-6.6297,-6.6316,-6.6422,-6.648,-6.6405,-6.647,-6.6522,-6.6623,-6.6726,-6.6806,-6.6997,-6.6984,-6.7077,-6.7037,-6.7236,-6.7051,-6.7072,-6.7046,-6.7041,-6.7056,-6.7275,-6.7281,-6.7286,-6.729,0,-6.6561,-6.653,-6.6616,-6.6695,-6.6766,-6.6826,-6.6875,-6.6936,-6.6863,-6.6943,-6.7057,-6.7119,-6.7242,-6.735,-6.7433,-6.7448,-6.7362,-6.7348,-6.7394,-6.7423,-6.7439,-6.7438,-6.6825,-6.7336,-6.7332,-6.7328,-6.7326,-6.7324,-6.6909,-6.7017,-6.7043,-6.7144,-6.7172,-6.7222,-6.7321,-6.7308,-6.74,-6.7493,-6.7443,-6.7578,-6.7614,-6.7716,-6.7745,-6.7852,-6.7775,-6.784,-6.7857,-6.7876,-6.7902,-6.7417,-6.7866,-6.7865,-6.7863,-6.7862,-6.7861,0,-6.7376,-6.7385,-6.7478,-6.755,-6.763,-6.7534,-6.7585,-6.766,-6.7778,-6.7817,-6.7897,-6.8031,-6.8134,-6.8128,-6.8224,-6.8312,-6.8274,-6.834,-6.8336,-6.8342,-6.7963,-6.7915,-6.8369,-6.8369,-6.8369,-6.8369,-6.8369,-6.8369,-6.7628,-6.7806,-6.7779,-6.7972,-6.7981,-6.8109,-6.8147,-6.8194,-6.8225,-6.8378,-6.8462,-6.8455,-6.8478,-6.8575,-6.8667,-6.8663,-6.8707,-6.8789,-6.8771,-6.8418,-6.8368,-6.832,-6.8276,-6.8798,-6.8798,-6.9142,-6.9145,-6.9147]},{"header":{"parameterUnit":"m.s-1","parameterCategory":1,"la1":30.2991,"la2":30.254,"lo1":-89.0895,"lo2":-89.0444,"dy":0.0017,"dx":0.0017,"nx":28,"ny":28,"refTime":"2024-03-20T09:00:00:Z","depth":0,"parameterNumber":3,"parameterNumberName":"V-component_of_WINDS"},"data":[0,0,0,0,0,0,0,0,0,0,0,0,0,0,0,0,0,0,0,0,0,0,0,0,0,0,0,0,0,0,0,0,0,0,0,0,0,0,0,0,0,0,0,0,0,0,0,0,0,0,0,0,0,0,0,0,0,0,-5.0191,-5.019,0,-5.0096,-5.0095,-5.0094,-5.0043,-5.0042,-5.0042,-5.0042,-4.9939,-4.9936,-4.9934,0,0,0,0,0,0,0,0,0,0,0,0,0,-5.032,-5.0318,-5.0191,-5.019,-5.0188,-5.0096,-5.0095,-5.0094,-5.0043,-5.0042,-5.0042,-5.0042,-4.994,-4.9937,-4.9933,0,0,0,0,0,0,0,0,0,0,0,0,0,-5.0248,-5.0317,-5.0191,-5.0152,-5.0147,-5.0097,-5.0095,-5.0093,-5.0043,-5.0042,-5.0042,-5.0042,-4.9941,-4.9937,-4.9933,-4.9912,0,0,-4.9921,-4.9919,0,0,0,0,0,0,0,0,-5.0252,-5.0243,-5.0159,-5.0154,-5.0149,-5.0081,-5.0103,-5.0032,-5.0043,-5.0082,-5.0042,-5.0042,-4.9986,-4.9978,-4.9961,-4.9907,-4.9902,-4.9921,-4.9918,-4.9916,-4.9915,0,0,0,0,0,0,0,-5.0257,-5.0247,-5.0153,-5.0158,-5.0152,-5.0137,-5.0126,-5.0089,-5.0036,-5.0079,-5.0075,-5.0065,-4.9983,-4.9965,-4.9958,-4.9901,-4.9921,-4.9917,-4.9915,-4.9913,-4.9823,-4.9823,0,0,0,0,0,0,-5.0269,-5.0252,-5.0156,-5.015,-5.0202,-5.0135,-5.0123,-5.0103,-5.0036,-5.0026,-5.0065,-5.0063,-4.9971,-4.9963,-4.9954,-4.9924,-4.9916,-4.9913,-4.991,-4.9823,-4.9823,-4.9823,0,0,0,0,0,0,-5.0272,-5.0261,-5.016,-5.02,-5.0186,-5.0133,-5.0111,-5.0101,-5.0083,-5.0026,-5.0015,-5.0056,-4.9971,-4.996,-4.9923,-4.9919,-4.9911,-4.9907,-4.9823,-4.9823,-4.9823,-4.9864,0,0,0,0,0,0,-5.0276,-5.0263,-5.0256,-5.02,-5.0184,-5.0133,-5.011,-5.01,-5.0077,-5.0073,-5.0015,-5.0005,-4.997,-4.9929,-4.9919,-4.9914,-4.9904,-4.9823,-4.9823,-4.9823,-4.9862,-4.9865,-4.9867,0,0,0,0,0,-5.0281,-5.027,-5.0256,-5.0245,-5.0175,-5.0133,-5.0123,-5.0085,-5.0077,-5.0068,-5.0031,-5.0007,-4.9922,-4.9926,-4.9914,-4.9907,-4.9823,-4.9823,-4.9823,-4.9861,-4.9865,-4.9867,0,0,0,0,0,0,-5.0325,-5.0262,-5.0246,-5.0217,-5.0181,-5.0124,-5.0112,-5.009,-5.0053,-5.0051,-5.0003,-4.999,-4.9958,-4.9929,-4.9934,-4.9882,-4.9869,-4.9867,-4.9903,-4.9905,-4.9908,-4.9915,-4.9901,0,0,0,0,0,-5.0331,-5.0305,-5.025,-5.023,-5.0213,-5.0166,-5.0146,-5.012,-5.008,-5.0063,-5.0024,-4.9984,-4.9948,-4.9925,-4.9889,-4.9858,-4.9843,-4.9847,-4.985,-4.9852,-4.9851,-4.9831,-4.9831,-4.9823,-4.9823,-4.9823,0,0,-5.0344,-5.0306,-5.0292,-5.0238,-5.0207,-5.0178,-5.0153,-5.0124,-5.0101,-5.0058,-5.0021,-4.9991,-4.9943,-4.9909,-4.9891,-4.9883,-4.985,-4.9852,-4.9855,-4.9851,-4.9831,-4.9832,-4.9832,-4.9823,-4.9823,-4.9823,0,0,-5.0352,-5.0322,-5.0301,-5.0271,-5.0225,-5.0194,-5.0189,-5.0135,-5.0114,-5.0077,-5.0044,-5.0015,-4.9954,-4.9921,-4.9896,-4.9891,-4.9866,-4.988,-4.9893,-4.9874,-4.9875,-4.9875,-4.9872,-4.9872,-4.9879,-4.9879,-4.9879,0,-5.0373,-5.0331,-5.0293,-5.0266,-5.0242,-5.0203,-5.0181,-5.0152,-5.0096,-5.0079,-5.0071,-4.9994,-4.9959,-4.9916,-4.9915,-4.9896,-4.9887,-4.9887,-4.9878,-4.9878,-4.9878,-4.9874,-4.9874,-4.9881,-4.9881,-4.988,-4.988,0,-5.0358,-5.0329,-5.0317,-5.0266,-5.0241,-5.0216,-5.0172,-5.015,-5.0126,-5.0095,-5.0056,-5.0013,-4.9967,-4.9955,-4.993,-4.9907,-4.9904,-4.9888,-4.9874,-4.9881,-4.9877,-4.9876,-4.9884,-4.9883,-4.9882,-4.9882,0,0,-5.0391,-5.032,-5.0316,-5.0292,-5.0238,-5.0213,-5.0186,-5.0143,-5.0124,-5.0086,-5.006,-5.001,-4.9995,-4.9967,-4.9937,-4.9921,-4.9918,-4.9906,-4.9905,-4.9909,-4.9889,-4.9901,-4.9901,-4.9902,-4.9902,-4.9901,-4.9893,0,-5.0391,-5.0343,-5.0307,-5.0271,-5.0242,-5.0205,-5.0181,-5.0144,-5.0113,-5.0083,-5.0048,-5.0013,-4.9996,-4.9979,-4.9961,-4.9923,-4.9913,-4.9923,-4.9875,-4.9874,-4.9888,-4.9899,-4.9911,-4.9906,-4.9891,-4.9891,-4.9891,0,-5.0385,-5.035,-5.0312,-5.0261,-5.0247,-5.0226,-5.0183,-5.0155,-5.0112,-5.009,-5.0059,-5.003,-4.9996,-4.9985,-4.9937,-4.9945,-4.9923,-4.9901,-4.99,-4.9893,-4.9883,-4.9892,-4.9903,-4.9902,-4.9888,-4.9888,-4.9888,0,-5.0412,-5.0355,-5.0325,-5.0306,-5.0245,-5.0231,-5.0204,-5.0161,-5.0137,-5.0098,-5.0082,-5.0039,-5.0016,-4.9982,-4.9941,-4.9937,-4.9896,-4.9883,-4.9876,-4.9877,-4.9869,-4.987,-4.9877,-4.9856,-4.9856,-4.9856,-4.9856,0,-5.0415,-5.0393,-5.0336,-5.0318,-5.0291,-5.0249,-5.0223,-5.0193,-5.0154,-5.0127,-5.0091,-5.0066,-5.0013,-4.9981,-4.9948,-4.9912,-4.9902,-4.9882,-4.9874,-4.9885,-4.9888,-4.987,-4.9869,-4.9856,-4.9856,-4.9856,-4.9856,0,-5.0441,-5.0402,-5.0367,-5.0313,-5.0298,-5.0281,-5.0233,-5.0212,-5.018,-5.0146,-5.0135,-5.0084,-5.0044,-5.0,-4.9944,-4.9922,-4.9888,-4.9876,-4.9904,-4.9899,-4.9894,-4.9895,-4.9889,-4.9886,-4.9869,-4.9869,-4.9869,0,-5.0445,-5.0428,-5.0372,-5.0353,-5.0328,-5.0296,-5.0272,-5.023,-5.0206,-5.0154,-5.0139,-5.0096,-5.006,-4.9998,-4.9954,-4.9911,-4.9897,-4.9898,-4.989,-4.9902,-4.9896,-4.9897,-4.9894,-4.99,-4.99,-4.9901,-4.9901,0,-5.0457,-5.0439,-5.0407,-5.0368,-5.0341,-5.0307,-5.0272,-5.0257,-5.0207,-5.0181,-5.0141,-5.0113,-5.0058,-5.0015,-4.9967,-4.9936,-4.9909,-4.9904,-4.99,-4.9911,-4.9928,-4.9918,-4.9909,-4.9904,-4.9904,-4.9903,-4.9903,-4.9903,-5.0471,-5.0454,-5.0412,-5.0377,-5.0346,-5.0314,-5.0292,-5.0258,-5.0224,-5.0177,-5.0153,-5.0113,-5.0067,-5.0,-4.9971,-4.9937,-4.9928,-4.9923,-4.9921,-4.992,-4.9923,-4.9934,-4.9928,-4.9927,-4.9927,-4.9927,-4.9927,0,-5.048,-5.0452,-5.042,-5.0374,-5.0345,-5.0325,-5.0285,-5.0262,-5.0228,-5.0189,-5.0155,-5.0108,-5.0066,-5.002,-4.9975,-4.9956,-4.9943,-4.9946,-4.9946,-4.994,-4.9934,-4.9941,-4.9958,-4.9958,-4.9958,-4.9958,-4.9958,-4.9958,-5.0482,-5.0451,-5.0428,-5.038,-5.035,-5.0313,-5.0292,-5.0261,-5.023,-5.018,-5.0146,-5.0117,-5.0074,-5.0025,-4.9986,-4.9973,-4.9957,-4.9964,-4.9947,-4.9943,-4.994,-4.9938,-4.9945,-4.9961,-4.9961,-4.9956,-4.9956,-4.9956]}]]